Weather Roundup
Issued by NWS Chicago, IL

Home | Current Version | Previous Version | Graphics & Text | Print | Product List | Glossary On
Versions: 1 2 3 4 5 6 7 8 9 10 11 12 13 14 15 16 17 18 19 20 21 22 23 24 25 26 27 28 29 30 31 32 33 34 35 36 37 38 39 40 41 42 43 44 45 46 47 48 49 50
000
NZUS59 KLOT 260212
HRRLOT

CHICAGO AREA WEATHER ROUNDUP
NATIONAL WEATHER SERVICE CHICAGO/ROMEOVILLE IL
900 PM CDT SAT APR 25 2015

NOTE: "FAIR" INDICATES FEW OR NO CLOUDS BELOW 12,000 FEET WITH NO
SIGNIFICANT WEATHER AND/OR OBSTRUCTIONS TO VISIBILITY.

* THESE STATIONS ARE NOT UNDER NWS QUALITY CONTROL. THEY ALSO MAY NOT
  REPORT WEATHER SUCH AS PRECIPITATION OR FOG.

ILZ005-006-012>014-019>023-260300-
NORTHEAST ILLINOIS

CITY           SKY/WX    TMP DP  RH WIND       PRES   REMARKS
OHARE          CLOUDY    42  31  64 NE12      29.84R
MIDWAY         CLOUDY    44  34  67 N8        29.84R
AURORA         CLOUDY    44  34  67 NE12      29.83R
LANSING*       CLOUDY    42  36  80 NE8       29.82R
JOLIET*        CLOUDY    45  37  75 NE14      29.82R
WAUKEGAN       CLOUDY    40  26  57 N9G20     29.85R
DUPAGE AIRPORT CLOUDY    42  31  64 NE13      29.83R
WHEELING       CLOUDY    42  28  57 N10       29.86R
KANKAKEE*      CLOUDY    45  42  90 NE14      29.79R
MORRIS*        CLOUDY    44  39  83 NE9       29.79R
LEWIS AIRPORT* CLOUDY    42  34  73 NE15      29.82R
NORTHERLY IS     N/A     40  34  79 N14         N/A
$$

WIZ051-052-058>065-066-070>072-260300-
SOUTHEAST WISCONSIN

CITY           SKY/WX    TMP DP  RH WIND       PRES   REMARKS
MILWAUKEE      CLOUDY    41  26  55 N15G25    29.88R
KENOSHA*       CLOUDY    40  27  59 N10       29.87R
RACINE*        CLOUDY    40  29  64 N16G24    29.88S
BURLINGTON     CLOUDY    41  17  38 NE12      29.87S
WAUKESHA       CLOUDY    41  18  38 NE9       29.89R
WEST BEND      CLOUDY    41  14  33 N8        29.89R
$$

INZ001>003-010>013-019-020-260300-
NORTHWEST INDIANA

CITY           SKY/WX    TMP DP  RH WIND       PRES   REMARKS
GARY*          CLOUDY    43  36  75 NE15      29.83R
MICHIGAN CITY* NOT AVBL
RENSSELAER*    NOT AVBL
VALPARAISO     CLOUDY    44  41  89 NE5       29.81R
$$

LMZ740>746-260300-
SOUTHERN LAKE MICHIGAN

STATION/POSITION TIME  SKY/WX   TEMP WIND        PRES    VSBY
                                AIR  DIR/SP/G
                 (UTC)          (F)  (DEG/KT/KT) (MB)    (MI)
HARRISON CRIB    0100            39   10/ 19/ 22   N/A
BURNHAM HARBOR   0200            40  350/ 12/ 16   N/A
CALUMET HARBOR   0100            41  360/ 12/ 15   N/A
BURNS HARBOR     0100            42   10/ 15/ 16 1010.2R
MICHIGAN CITY    0100            43  350/ 12/ 14   N/A
$$

ABBREVIATIONS USED IN REMARKS
   TC - TEMPERATURE IN CELSIUS
  WCI - WIND CHILL INDEX
   HX - HEAT INDEX
  VSB - VISIBILITY
$$


USA.gov is the U.S. government's official web portal to all federal, state and local government web resources and services.